Hourly Data Report for September 11, 2017

All times are specified in Local Standard Time (LST). Add 1 hour to adjust for Daylight Saving Time where and when it is observed.

SUMMERSIDE
PRINCE EDWARD ISLAND

46°26'28.000" N
63°50'17.000" W
12.20 m
8300596
71702
WSD

Download Data

Hourly Data (September 2017)
Hourly Data Report for September 11, 2017
Temp Definition
°C
Dew Point Temp Definition
°C
Rel Hum Definition
%
Wind Dir Definition
10's deg

Wind Spd Definition
km/h
Visibility Definition
km
Stn Press Definition
kPa
Hmdx Definition


Wind Chill Definition


Weather Definition


TIME
00:00 10.8 9.9 94 31 5   101.70     LegendNANA
01:00 11.4 9.7 90 31 9   101.63     LegendNANA
02:00 11.5 9.9 90 33 8   101.59     LegendNANA
03:00 12.3 11.0 92 33 11   101.54     LegendNANA
04:00 12.7 11.4 92 33 15   101.51     LegendNANA
05:00 12.8 11.6 93 32 15   101.50     LegendNANA
06:00 13.0 11.9 93 32 17   101.50     LegendNANA
07:00 13.5 12.1 91 32 16   101.52     LegendNANA
08:00 13.8 11.8 88 31 20   101.48     LegendNANA
09:00 14.7 12.1 85 36 25   101.48     LegendNANA
10:00 15.3 12.6 84 2 29   101.53     LegendNANA
11:00 15.3 12.5 84 1 27   101.54     LegendNANA
12:00 15.7 12.3 80 1 31   101.47     LegendNANA
13:00 16.0 12.3 79 36 37   101.43     LegendNANA
14:00 15.8 12.2 79 1 37   101.40     LegendNANA
15:00 15.5 11.8 79 1 37   101.36     LegendNANA
16:00 15.9 12.1 79 1 36   101.30     LegendNANA
17:00 15.2 12.0 81 1 34   101.30     LegendNANA
18:00 14.9 12.0 83 2 28   101.30     LegendNANA
19:00 14.5 11.6 83 2 31   101.25     LegendNANA
20:00 14.2 11.5 84 36 26   101.29     LegendNANA
21:00 14.5 11.4 82 1 28   101.28     LegendNANA
22:00 14.4 11.1 80 1 27   101.27     LegendNANA
23:00 14.1 10.9 81 2 29   101.20     LegendNANA

Notes on Data Quality.

Legend

  • E = Estimated
  • M = Missing
  • NA = Not Available
  • ‡ = Partner data that is not subject to review by the National Climate Archives
Date modified: